Presure
97 145 96 87 98 161 174 155 142 171 95 156 153 180 147 95 118 95 100 101 107 111 108 158 125 126 96 125 135 126 130 136 133 129 165 158 154 158 173 122 147 129 145
176 88 99 92 88 88 90 137 132 173 122 127 165 101 102 96 114 185 99 101 163 109 116 120 138 125 126 127 123 138 130 133 110 96 108 140 174 169 180 138 175 136 121
134 179 97 99 123 102 97 139 96 112 101 111 97 101 150 100 184 160 107 104 103 106 130 128 130 131 145 128 144 145 145 132 129 133 115 136 123 129 174 174 164 127 129
174 179 186 189 154 125 116 121 88 104 100 131 152 82 134 128 101 104 102 104 145 104 106 161 155 142 164 128 123 131 128 147 130 98 126 122 95 122 115 88 155 138 156
117 186 170 116 96 136 185 172 103 126 147 135 106 109 88 114 107 119 164 164 122 133 151 144 114 145 140 156 116 166 134 132 126 132 123 136 124 94 132 119 82 80 87
145 181 176 165 186 137 124 149 97 92 103 98 95 159 128 97 108 97 95 96 102 107 154 159 158 156 161 123 116 126 150 130 84 160 76 91 134 133 82 138 83 83 147
182 165 165 165 155 162 147 130 109 141 161 103 105 96 107 101 94 119 96 97 96 98 97 143 115 125 116 133 104 108 171 123 120 132 152 77 81 85 132 78 77 143 83
195 153 134 163 156 154 132 170 176 141 134 147 149 126 99 99 132 96 90 97 102 97 96 98 133 159 127 147 155 104 104 118 126 141 135 125 129 124 123 81 107 84 83
216 111 79 79 82 172 173 167 159 158 133 149 161 159 135 160 100 97 137 105 95 95 96 98 96 160 173 171 131 151 104 104 109 130 128 122 120 110 133 80 124 82 85
217 223 234 184 88 72 202 188 136 109 155 142 164 165 161 115 123 109 118 103 93 101 146 98 97 96 101 154 175 109 110 110 104 108 154 125 112 127 123 88 134 123 96
204 208 214 223 228 235 131 78 77 189 125 125 157 178 177 149 161 164 158 106 167 101 146 100 167 134 115 98 104 104 108 108 102 101 102 163 105 128 123 111 88 134 115
190 196 200 204 208 213 216 218 78 148 127 163 91 87 83 137 174 177 159 166 147 117 170 183 96 104 102 135 105 102 107 149 109 134 122 99 125 112 132 106 93 106 86
189 182 186 190 197 203 206 213 199 209 84 177 109 78 167 131 88 178 178 159 175 160 121 171 171 146 106 161 112 125 138 113 106 142 118 104 104 123 110 103 143 119 115
191 186 192 186 183 184 196 207 211 215 185 88 82 81 100 173 85 90 89 133 189 154 163 183 196 209 238 147 115 151 147 127 136 166 103 176 153 103 103 161 114 105 163
187 189 193 193 192 191 195 185 201 209 213 221 161 121 95 83 146 164 81 85 90 159 164 167 165 158 161 203 112 183 118 112 107 122 171 103 116 144 105 163 113 124 155
219 202 184 179 188 196 206 195 196 185 204 213 216 223 142 89 181 87 112 83 87 90 97 160 168 174 164 182 145 139 116 122 200 152 104 163 111 104 110 159 113 184 133
187 205 222 238 204 195 184 201 205 195 201 199 207 215 220 223 192 209 158 88 154 86 87 89 97 101 180 166 168 162 204 204 196 103 100 109 176 184 135 111 109 169 102
208 193 213 197 242 232 218 209 193 189 209 205 197 203 212 218 220 199 226 178 126 90 93 145 94 87 97 175 188 185 167 170 203 123 165 201 108 110 141 104 111 105 139
231 254 255 224 201 207 200 237 223 221 218 197 213 212 204 207 213 226 224 210 204 183 173 131 163 101 125 94 178 167 188 174 127 133 160 125 109 110 180 164 183 137 149
275 280 291 291 171 280 179 216 220 237 220 229 206 206 208 190 206 206 223 226 230 194 170 190 160 169 83 124 105 102 98 119 201 183 207 193 142 113 145 126 135 153 184
299 295 306 310 309 299 282 290 246 218 221 232 221 226 211 210 204 209 204 220 225 226 243 180 149 87 78 90 101 175 91 102 104 172 177 165 180 208 168 153 183 137 114
316 313 309 304 306 310 313 293 304 186 223 245 241 228 231 218 212 210 205 200 219 225 228 214 186 170 167 165 94 117 111 95 88 117 182 186 183 208 192 105 160 175 113
297 303 307 312 309 310 312 309 308 300 267 192 247 242 240 228 216 229 216 221 193 208 221 241 199 183 172 170 127 120 109 83 186 197 172 190 194 183 139 186 172 155 181
346 474 338 308 311 317 316 313 309 305 300 273 254 180 248 239 223 216 227 218 223 201 219 228 225 204 181 173 166 171 171 103 88 97 194 176 99 154 198 198 207 185 168
451 446 444 444 447 305 303 317 308 304 306 302 301 266 238 220 167 222 212 215 217 224 201 225 221 225 192 179 179 171 167 173 95 156 195 177 217 190 191 180 199 203 227
406 400 402 406 408 414 424 340 303 308 298 307 303 303 292 265 252 242 221 220 218 222 217 201 223 220 205 193 178 193 176 172 188 180 146 85 81 108 88 89 215 196 202
Wind_Speed
53 62 44 37 41 45 44 36 61 39 38 53 41 43 44 35 44 29 30 27 31 33 29 46 41 40 25 34 33 31 29 28 26 24 25 25 25 28 31 18 26 23 24
57 45 49 47 44 43 41 57 44 46 46 53 51 41 41 36 46 40 30 29 45 31 36 41 46 40 40 37 34 36 32 30 25 20 18 24 29 29 32 23 32 22 17
65 60 53 57 64 57 53 61 41 47 40 50 36 43 46 39 50 56 35 29 30 30 48 42 44 41 47 41 40 39 38 33 31 29 25 26 26 25 32 33 32 22 19
63 63 66 63 67 59 64 54 40 49 46 49 59 28 61 48 39 40 34 33 55 32 32 58 52 52 48 43 36 40 37 38 33 24 28 27 21 25 24 14 32 24 29
58 68 64 56 57 73 66 56 58 64 55 57 49 51 36 50 42 51 63 59 51 56 61 52 37 54 46 52 35 44 44 38 35 36 32 34 30 20 28 28 12 9 11
68 71 66 65 72 73 71 71 57 49 58 53 48 61 63 46 50 40 36 33 36 35 65 54 63 61 60 45 37 45 48 41 32 43 23 28 32 31 19 27 16 14 32
74 71 71 73 73 73 81 74 68 78 74 62 62 51 57 52 44 48 42 40 38 36 34 61 44 44 37 51 33 33 52 38 35 41 46 25 25 23 33 17 14 29 14
82 70 65 76 76 77 67 76 76 87 81 74 77 72 58 56 70 49 43 46 43 41 38 38 47 58 44 61 59 35 34 37 42 47 44 39 39 36 35 22 26 18 16
73 61 52 50 53 81 82 82 81 83 84 85 78 81 80 77 56 51 67 58 48 45 43 42 41 58 64 56 57 61 36 36 36 46 44 37 37 36 41 23 37 21 21
61 62 64 83 61 38 90 88 76 68 87 85 84 84 84 73 75 68 66 55 45 55 64 48 47 45 46 66 65 43 41 40 38 38 56 44 36 42 40 28 42 39 28
66 67 66 64 63 64 58 45 44 92 74 71 88 93 91 83 80 80 80 61 71 55 65 53 69 62 55 47 48 45 45 42 40 41 38 59 37 47 45 37 26 44 37
74 73 73 74 75 76 77 77 52 85 72 87 58 53 51 79 90 90 81 82 80 70 78 79 50 58 55 65 53 51 49 60 47 55 47 40 51 40 44 42 32 37 27
83 86 84 84 84 83 84 83 91 74 61 101 69 50 95 76 55 94 93 83 88 81 73 82 82 79 61 78 64 62 62 54 52 60 56 45 43 53 40 40 54 43 43
88 91 90 94 95 94 91 88 88 88 102 64 63 61 68 100 57 59 57 74 96 83 81 75 73 73 63 70 65 78 73 64 64 71 50 70 61 43 41 60 44 38 55
95 95 96 98 100 100 100 100 97 93 94 90 87 85 74 64 91 95 55 55 56 86 85 83 81 81 81 77 69 65 62 63 57 59 71 51 56 61 44 50 40 53 59
90 101 103 102 104 107 105 106 106 105 101 99 97 96 96 77 90 69 76 60 60 61 65 84 83 81 92 80 82 60 70 66 77 67 55 75 54 47 51 57 44 66 57
93 109 101 103 112 111 108 112 111 110 109 108 104 103 100 100 108 111 97 71 91 64 66 70 66 56 78 96 91 86 69 79 83 55 54 59 75 74 56 52 46 63 44
116 108 111 102 111 115 119 120 114 110 116 114 111 109 107 106 106 110 96 100 86 73 69 79 68 53 60 85 82 84 86 82 76 75 72 78 58 58 60 50 53 46 65
105 112 110 110 117 119 111 124 125 122 125 116 118 117 113 111 108 103 104 102 104 105 100 88 96 74 84 66 100 95 85 82 77 73 83 78 64 59 74 70 65 56 58
105 107 109 114 104 125 98 128 123 130 127 128 124 120 119 112 113 109 104 101 95 109 103 100 107 103 60 70 74 68 62 73 78 82 78 81 78 62 76 73 73 65 67
108 108 107 107 111 118 128 131 133 130 125 132 128 131 126 124 120 115 110 106 101 97 87 107 106 63 57 69 79 77 64 68 68 87 90 91 84 78 82 80 70 72 59
97 100 102 104 105 109 112 123 121 117 126 135 136 132 132 130 126 124 115 110 106 101 100 106 117 117 118 112 67 81 69 62 51 71 93 89 76 82 85 59 81 71 59
94 97 100 102 106 109 110 112 113 124 143 119 140 138 136 135 129 127 124 118 110 110 107 108 118 121 125 119 86 82 73 54 94 81 78 83 93 94 79 88 85 77 80
109 69 93 104 107 109 111 114 114 115 123 146 146 113 141 139 134 127 127 123 121 116 115 111 115 121 126 123 119 124 119 72 61 70 90 90 63 74 89 87 83 81 79
58 56 55 53 53 107 112 113 116 119 117 121 128 148 137 125 97 133 127 123 124 123 117 115 117 119 128 123 126 127 120 124 70 106 95 103 87 85 91 90 85 84 74
56 54 51 49 50 52 53 94 116 119 122 121 124 127 137 143 143 142 132 130 125 126 126 121 121 121 123 129 130 114 132 126 102 119 100 65 55 67 62 62 87 82 82
Wind_Direction
248 230 244 248 245 240 243 248 234 254 232 241 253 263 243 231 231 227 230 230 241 246 240 244 243 242 227 249 239 244 239 238 237 236 246 243 243 244 243 234 246 253 242
251 245 244 246 248 250 250 231 248 251 239 233 246 232 231 233 236 245 231 232 238 244 246 249 236 246 245 242 245 240 240 237 241 212 232 239 248 250 252 247 249 245 251
236 251 245 243 237 245 246 237 245 245 250 236 240 234 234 237 247 236 233 232 238 241 243 239 246 250 237 239 239 238 235 236 236 237 224 232 230 236 252 254 250 244 240
244 244 247 233 232 240 244 240 244 243 251 247 233 246 238 240 243 239 242 236 236 237 239 239 236 242 237 240 246 239 235 239 236 227 233 235 215 232 246 212 254 246 253
245 247 238 242 243 239 233 227 249 243 234 237 251 245 251 240 242 241 233 236 244 243 241 239 239 239 239 240 241 246 238 240 238 235 236 237 236 222 237 249 214 224 231
240 243 241 238 246 243 246 243 245 244 248 244 241 231 240 245 238 240 240 237 239 242 240 245 243 243 240 239 240 244 242 242 211 242 218 222 235 236 219 242 219 226 249
243 242 238 237 237 238 244 245 239 243 239 243 245 239 244 243 239 236 244 240 236 235 235 242 244 243 242 243 237 235 247 240 239 243 244 221 227 228 240 229 233 252 233
244 243 246 243 243 242 242 238 237 242 244 239 240 243 237 237 251 231 235 242 238 240 233 235 243 242 244 244 246 237 234 241 242 243 243 242 246 240 245 231 240 236 237
245 248 250 250 248 243 242 242 239 239 243 245 239 242 246 236 240 235 243 235 233 233 237 240 238 242 242 250 236 244 235 235 239 245 243 242 240 242 243 237 245 239 238
246 248 248 242 246 247 240 242 243 245 242 243 242 241 242 242 243 240 241 234 237 236 243 232 237 239 243 246 242 239 239 238 234 239 243 247 238 244 244 240 244 246 240
241 240 242 240 242 247 249 247 245 238 240 239 242 239 240 243 239 237 239 240 241 236 241 237 245 248 240 239 243 243 240 240 235 235 234 249 236 245 243 242 242 246 245
244 244 243 241 240 237 238 240 242 239 240 238 242 239 239 242 240 238 242 241 247 243 246 244 241 240 237 243 236 236 233 247 242 243 241 233 242 240 244 246 245 248 250
245 246 244 245 245 240 238 237 239 238 242 237 240 240 242 239 237 238 238 245 240 245 242 247 248 248 242 246 238 242 246 240 237 242 243 235 235 248 237 240 245 249 252
248 250 245 245 245 244 244 239 237 236 240 240 242 243 242 239 241 239 237 237 238 248 247 248 251 253 257 245 244 250 246 235 245 249 235 252 249 234 235 252 243 244 247
251 250 246 245 246 246 242 244 240 237 236 235 239 242 242 243 238 240 239 239 237 246 248 249 251 250 251 252 235 246 242 242 242 242 245 236 239 247 237 242 238 253 249
251 250 251 252 248 246 242 245 242 242 238 235 235 234 241 244 238 244 241 239 239 237 239 249 252 257 250 253 244 241 238 239 246 242 238 251 241 236 241 248 237 253 255
260 250 249 249 247 248 250 245 241 245 241 240 237 234 232 234 238 233 237 245 237 236 237 240 241 241 254 245 247 247 243 243 247 237 237 241 253 253 244 246 238 246 239
258 265 256 256 249 244 244 244 249 248 239 240 243 237 234 234 232 235 233 236 240 244 237 236 241 235 240 250 249 245 245 246 246 241 242 242 241 244 243 240 248 233 249
269 267 261 258 252 252 252 242 242 241 240 247 237 236 238 235 234 232 231 232 232 232 236 243 240 240 245 240 252 246 248 245 243 246 249 239 245 244 247 246 248 245 246
271 268 265 260 261 251 254 250 247 241 241 237 243 241 237 242 236 234 230 228 227 231 235 232 240 239 235 242 243 238 235 239 244 247 242 244 241 242 245 246 247 249 247
273 270 268 264 259 255 250 249 238 247 244 240 240 236 240 236 239 234 233 229 225 224 217 228 241 234 237 236 239 243 234 238 238 246 245 247 246 238 248 248 244 249 249
276 272 268 263 258 255 253 250 248 251 241 236 237 238 234 237 235 237 236 234 226 222 218 220 226 235 243 246 237 243 234 235 232 242 246 246 242 241 243 244 249 242 243
277 271 265 260 257 254 250 248 247 245 239 247 235 234 234 234 238 229 233 228 234 228 220 211 222 228 236 241 242 243 239 232 249 241 239 240 243 244 246 243 247 246 247
286 287 267 258 254 250 248 246 242 242 242 239 234 247 232 232 235 237 230 231 226 233 222 215 214 220 229 235 243 244 247 238 236 239 247 242 237 240 241 240 238 243 249
292 290 287 284 281 253 247 243 242 240 239 239 238 237 233 234 242 235 234 232 230 224 230 217 216 214 225 230 233 241 246 246 232 246 242 248 241 241 236 243 240 240 241
297 292 288 282 277 273 270 249 241 239 238 236 237 235 236 235 229 230 232 233 228 226 224 229 216 214 218 223 231 229 240 245 238 248 246 238 238 241 239 240 239 240 243